Theta_e
314 315 315 314 312 311 310 310 309 306 304 302 300 298 297 296 296 293 291 290 288 286
311 313 314 313 313 312 311 310 307 306 303 302 300 298 296 295 294 292 290 289 288 288
309 312 314 313 311 311 311 309 307 305 304 302 301 298 295 294 294 292 290 289 288 286
305 308 311 312 311 311 310 309 306 305 304 302 300 298 296 295 292 291 289 286 286 285
303 305 308 309 311 310 309 308 305 304 303 302 300 298 296 293 292 291 289 288 286 286
301 304 305 307 308 307 307 305 302 302 301 301 300 298 297 295 293 292 291 289 288 287
294 303 304 305 304 303 303 303 301 302 302 300 300 298 297 294 293 293 292 291 290 288
294 296 303 301 300 300 299 301 300 300 300 300 299 297 297 295 293 292 291 290 290 290
291 292 297 297 295 296 296 297 296 295 296 296 296 294 297 296 294 292 291 290 290 289
290 291 294 296 294 294 294 293 293 293 293 293 294 295 296 295 295 292 291 291 289 287
289 291 293 296 294 294 294 293 293 291 291 291 292 295 296 293 293 292 291 290 289 289
289 289 292 292 294 294 292 292 291 291 290 290 290 294 295 293 291 290 290 290 289 289
289 288 290 291 292 292 291 291 292 290 290 290 290 293 294 293 292 289 289 289 288 288
289 288 290 291 291 290 290 291 289 289 289 289 289 290 294 294 290 291 289 288 287 288
Wind_Speed
23 15 14 16 13 13 14 15 18 16 15 16 16 14 13 10 10 11 8 12 7 5
18 22 18 17 17 13 14 13 16 18 16 16 16 15 14 10 12 12 10 10 9 5
17 18 19 17 19 20 17 16 16 18 18 17 16 15 14 11 11 13 9 8 11 6
15 17 17 18 16 19 19 18 20 19 18 18 16 15 14 12 12 14 11 7 10 9
16 17 18 18 18 17 18 17 19 20 19 19 18 16 16 13 12 14 15 13 10 10
15 18 18 18 17 14 17 18 17 19 21 20 19 18 16 14 14 14 14 15 14 12
17 17 17 16 15 14 14 17 18 20 20 20 20 20 19 17 14 13 13 14 14 14
15 18 15 13 13 15 15 16 16 19 18 19 19 16 20 19 18 16 14 13 14 14
12 16 13 13 14 14 15 15 16 15 17 17 13 21 29 24 18 17 17 16 13 12
12 12 16 13 14 15 17 16 17 17 16 17 16 26 29 28 17 17 16 16 15 11
12 10 15 14 16 15 15 17 17 17 17 16 15 26 29 27 17 16 17 17 17 17
11 7 13 15 16 16 15 14 15 15 17 18 14 26 30 27 16 15 17 16 17 17
9 5 13 14 15 13 14 14 12 15 18 21 18 27 32 27 12 16 13 13 14 20
9 6 11 12 12 12 14 13 15 16 15 17 18 22 32 33 14 14 13 13 12 12
Wind_Direction
231 215 200 195 191 194 192 193 181 183 185 181 178 176 175 177 180 177 175 176 172 162
239 223 206 187 195 190 192 191 188 181 182 187 179 179 176 174 177 178 176 182 175 166
248 235 214 195 190 189 191 180 183 186 184 185 180 176 177 179 178 175 179 174 175 161
251 243 227 211 189 189 183 183 177 183 189 186 180 178 178 179 173 175 168 156 173 177
258 241 228 217 205 188 184 183 181 176 189 189 180 180 180 174 178 178 172 172 166 180
258 242 228 218 209 188 183 181 179 184 182 184 182 178 182 182 178 181 183 171 174 175
324 247 227 213 201 185 179 177 176 189 192 183 183 181 181 174 176 184 182 178 176 174
300 308 223 197 185 179 176 177 176 187 192 188 185 186 176 178 174 177 177 183 176 183
287 296 240 186 173 172 175 175 166 186 186 189 191 187 182 176 175 177 174 176 182 175
276 281 261 191 175 181 182 171 180 182 187 194 190 184 181 179 175 174 178 175 173 169
265 280 264 212 186 182 182 185 184 182 186 188 194 186 182 177 172 177 176 172 175 174
250 278 274 215 195 188 181 189 191 186 184 186 187 186 183 176 174 175 178 176 176 173
238 245 272 212 200 189 186 189 188 187 193 189 182 188 186 179 180 180 173 174 174 176
242 242 259 219 198 187 187 187 191 194 187 189 183 180 183 184 183 180 173 178 174 180